#timestamp,LO_Frequency,Hit 
1501290015.2,286047023.2,N
1501290035.1,286047020.9,N
1501290036.0,286047020.9,N
1501290055.8,286047020.8,N
1501290075.6,286047023.5,N
1501290095.5,286047023.3,N
1501290115.3,286047018.9,N
1501290135.1,286047023.5,N
1501290155.9,286047023.1,N
1501290175.7,286047025.2,N
1501290195.5,286047023.9,N
1501290215.4,286047025.2,N
1501290235.2,286047024.5,N
1501290255.0,286047022.2,N
1501290255.9,286047022.2,N
1501290275.7,286047026.4,N
1501290295.6,286047025.6,N
1501290315.4,286047028.3,N
1501290335.2,286047027.2,N
1501290355.1,286047026.4,N
1501290356.0,286047026.4,N
1501290375.8,286047025.5,N
1501290395.6,286047025.8,N
1501290415.5,286047028.4,N
1501290435.3,286047026.0,N
1501290455.1,286047025.7,N
1501290475.9,286047026.2,N
1501290495.7,286047026.2,N
1501290515.5,286047024.3,N
1501290535.3,286047027.8,N
1501290555.2,286047028.3,N
1501290575.0,286047029.5,N
1501290575.9,286047029.5,N
1501290595.7,286047028.6,N
1501290615.6,286047030.6,N
1501290635.4,286047027.2,N
1501290655.2,286047029.0,N
1501290675.1,286047028.8,N
1501290676.0,286047028.8,N
1501290695.8,286047034.4,N
1501290715.6,286047030.1,N
1501290735.5,286047030.6,N
1501290755.3,286047030.7,N
1501290775.1,286047030.2,N
1501290795.9,286047032.9,N
1501290815.7,286047029.8,N
1501290835.5,286047031.4,N
1501290855.3,286047028.8,N
1501290875.2,286047029.5,N
1501290895.0,286047029.7,N
1501290895.9,286047029.7,N
1501290915.7,286047029.6,N
1501290935.6,286047024.1,N
1501290955.4,286047024.5,N
1501290975.2,286047025.3,N
1501290995.1,286047029.2,N
1501290996.0,286047029.2,N
1501291015.8,286047032.9,N
1501291035.6,286047027.1,N
1501291055.5,286047031.0,N
1501291075.3,286047030.5,N
1501291095.1,286047030.2,N
1501291115.9,286047031.9,N
1501291135.7,286047033.9,N
1501291155.5,286047035.0,N
1501291175.3,286047035.3,N
1501291195.2,286047037.4,N
1501291215.0,286047031.8,N
1501291215.9,286047031.8,N
1501291235.7,286047032.0,N
1501291255.6,286047032.6,N
1501291275.4,286047033.0,N
1501291295.2,286047032.4,N
1501291315.1,286047029.0,N
1501291316.0,286047029.0,N
1501291335.8,286047031.8,N
1501291355.6,286047029.7,N
1501291375.5,286047029.8,N
1501291395.3,286047029.2,N
1501291415.1,286047030.1,N
1501291435.9,286047029.2,N
1501291455.7,286047034.4,N
1501291475.5,286047032.0,N
1501291495.3,286047032.1,N
1501291515.2,286047030.7,N
1501291535.9,286047028.7,N
1501291555.7,286047030.0,N
1501291575.6,286047029.7,N
1501291595.4,286047029.7,N
1501291615.2,286047029.3,N
1501291635.1,286047032.7,N
1501291636.0,286047032.7,N
1501291655.8,286047034.5,N
1501291675.6,286047031.4,N
1501291695.5,286047031.5,N
1501291715.3,286047032.7,N
1501291735.1,286047032.2,N
1501291755.8,286047032.9,N
1501291775.7,286047030.8,N
1501291795.5,286047028.7,N
1501291815.3,286047031.5,N
1501291835.2,286047033.2,N
1501291855.9,286047032.7,N
1501291875.7,286047027.1,N
1501291895.6,286047028.9,N
1501291915.4,286047029.8,N
1501291935.2,286047030.4,N
1501291955.1,286047033.6,N
1501291956.0,286047033.6,N
1501291975.8,286047035.9,N
1501291995.6,286047034.5,N
1501292015.4,286047033.9,N
1501292035.3,286047037.4,N
1501292055.1,286047036.9,N
1501292075.8,286047037.8,N
1501292095.7,286047032.8,N
1501292115.5,286047033.5,N
1501292135.3,286047031.0,N
1501292155.2,286047032.6,N
1501292175.9,286047034.7,N
1501292195.7,286047034.7,N
1501292215.6,286047036.2,N
1501292235.4,286047037.9,N
1501292255.2,286047036.9,N
1501292275.0,286047037.3,N
1501292275.9,286047037.3,N
1501292295.8,286047035.6,N
1501292315.6,286047035.6,N
1501292335.4,286047037.3,N
1501292355.3,286047037.6,N
1501292375.1,286047038.6,N
1501292395.8,286047038.1,N
1501292415.7,286047039.5,N
1501292435.5,286047040.0,N
1501292455.3,286047040.7,N
1501292475.2,286047037.8,N
1501292495.9,286047039.0,N
1501292515.7,286047040.7,N
1501292535.5,286047035.2,N
1501292555.4,286047036.6,N
1501292575.2,286047037.4,N
1501292595.0,286047040.3,N
1501292595.9,286047040.3,N
1501292615.8,286047036.7,N
1501292635.6,286047036.9,N
1501292655.4,286047034.2,N
1501292675.3,286047032.5,N
1501292695.1,286047033.0,N
1501292696.0,286047033.0,N
1501292715.8,286047034.2,N
1501292735.7,286047034.1,N
1501292755.5,286047038.3,N
1501292775.3,286047040.9,N
1501292795.1,286047040.1,N
1501292815.9,286047039.1,N
1501292835.7,286047034.9,N
1501292855.5,286047041.0,N
1501292875.4,286047039.5,N
1501292895.2,286047036.6,N
1501292915.0,286047043.9,N
1501292915.9,286047043.9,N
1501292935.8,286047042.0,N
1501292955.6,286047041.9,N
1501292975.4,286047041.1,N
1501292995.3,286047037.8,N
1501293015.1,286047039.3,N
1501293016.0,286047039.3,N
1501293035.8,286047040.7,N
1501293055.7,286047042.1,N
1501293075.5,286047041.7,N
1501293095.3,286047042.2,N
1501293115.1,286047042.2,N
1501293135.9,286047040.2,N
1501293155.7,286047041.4,N
1501293175.5,286047041.6,N
1501293195.4,286047041.6,N
1501293215.2,286047042.9,N
1501293235.0,286047043.3,N
1501293235.9,286047043.3,N
1501293255.8,286047044.3,N
1501293275.6,286047045.6,N
1501293295.4,286047048.1,N
1501293315.2,286047046.0,N
1501293335.1,286047041.9,N
1501293336.0,286047041.9,N
1501293355.8,286047043.0,N
1501293375.6,286047043.5,N
1501293395.5,286047045.4,N
1501293415.3,286047043.9,N
1501293435.1,286047041.9,N
1501293455.9,286047045.7,N
1501293475.7,286047043.7,N
1501293495.5,286047043.9,N
1501293515.4,286047044.2,N
1501293535.2,286047041.7,N
1501293555.0,286047042.8,N
1501293555.9,286047042.8,N
1501293575.8,286047040.8,N
1501293595.6,286047043.6,N
